sat.trackr.live / text

‹ back to catalog

STARLINK-37667

NORAD 69045 · 2026-101W

PAYLOAD ACTIVE UNKNOWN

§ Identity

Operator
Country
US
Launch date
2026-05-06
Launch site
AFWTR
Launch vehicle
Mass (kg)
RCS (m²)

Purposes: comms

External: N2YO · Heavens-Above · Gunter

§ Orbital elements

Epoch: 2026-09-20T01:28:16.481568Z

Period
93.90 min
Inclination
97.2874°
Eccentricity
0.0001717
Mean motion
15.33497140 rev/d
Perigee alt
464.2 km
Apogee alt
466.6 km
Semi-major
6,843.5 km
B*
8.8474e-4
RAAN
116.5846°
Arg perigee
116.9320°
Mean anomaly
243.2099°
Rev number
2,111

§ Raw data

STARLINK-376671 69045U 26101W   26263.06130187  .00028644  00000+0  88474-3 0  99962 69045  97.2874 116.5846 0001717 116.9320 243.2099 15.33497140 21113

JSON: /api/v1/satellites/69045 · /tle

For live sub-satellite position, see the globe view (requires WebGL).

§ Visibility from observer

Set your observer location to see the next 7 days of passes ≥ 10°. The values pass through the URL so the page stays shareable.

No JS? Fill the form by hand. The geolocation button needs JavaScript.